SV2BZQ-2 Thessalonik GR current weather conditions

sailwx.info

Wind from 337 at 6 knots gusting 13

Air temperature 10.0° C
Dewpoint 8.9° C

Last reported at 2014-Oct-24 13:49 UTC.
Time now 2014-Oct-24 14:52 UTC

Location: N 40°41' E 022°51'.
View on Google Maps.

See reports from other nearby stations

  
Tides and Currents Weather Stations Pressure Air Temp Water Temp Dewpoint Dewpoint Depression Visibility Wind Speed Wind Dir Waves Ship Positions
date/time (UTC)wind fromknots sea level pressurealtimeterstation pressurevisibilityair tempwater tempwave heightnotes
2014-Oct-24 13:49 337 6 gusting 13 10.0
2014-Oct-24 13:46 317 7 gusting 8 10.6
2014-Oct-24 13:36 314 4 gusting 10 10.6
2014-Oct-24 13:26 326 1 gusting 2 10.6
2014-Oct-24 13:20 351 4 gusting 9 10.0
2014-Oct-24 13:16 326 2 gusting 4 10.0
2014-Oct-24 13:06 322 1 gusting 2 10.0
2014-Oct-24 12:56 272 4 gusting 6 10.0
2014-Oct-24 12:49 281 2 gusting 6 9.4
2014-Oct-24 12:46 284 1 gusting 3 10.0
2014-Oct-24 12:36 304 2 gusting 2 10.0
2014-Oct-24 12:26 278 0 gusting 1 10.0
2014-Oct-24 12:18 311 2 gusting 8 9.4
2014-Oct-24 12:16 302 3 gusting 6 9.4
2014-Oct-24 12:06 308 2 gusting 6 9.4
2014-Oct-24 11:56 302 3 gusting 6 9.4
2014-Oct-24 11:49 299 6 gusting 10 9.4
2014-Oct-24 11:46 279 2 gusting 5 10.0
2014-Oct-24 11:36 295 6 gusting 7 9.4
2014-Oct-24 11:26 306 5 gusting 7 9.4
2014-Oct-24 11:18 298 5 gusting 9 9.4
2014-Oct-24 11:16 310 4 gusting 6 9.4
2014-Oct-24 11:06 312 3 gusting 6 9.4
2014-Oct-24 10:56 295 4 gusting 7 9.4
2014-Oct-24 10:46 305 5 gusting 7 9.4
2014-Oct-24 10:36 312 6 gusting 7 9.4
2014-Oct-24 10:26 313 6 gusting 9 9.4
2014-Oct-24 10:16 340 6 gusting 8 10.0
2014-Oct-24 10:02 331 6 gusting 9 9.4
2014-Oct-24 09:53 337 6 gusting 10 10.0
2014-Oct-24 09:48 360 5 gusting 10 9.4
2014-Oct-24 09:43 325 6 gusting 8 9.4
2014-Oct-24 09:33 302 6 gusting 9 10.0
2014-Oct-24 09:23 309 6 gusting 7 10.0
2014-Oct-24 09:16 282 3 gusting 6 10.0
2014-Oct-24 09:13 299 2 gusting 5 10.6
2014-Oct-24 09:03 289 3 gusting 4 10.6
2014-Oct-24 08:53 320 4 gusting 9 11.7
2014-Oct-24 08:43 355 1 gusting 2 11.7
2014-Oct-24 08:33 031 0 gusting 1 11.7
2014-Oct-24 08:23 026 1 gusting 3 11.7
2014-Oct-24 08:16 030 0 gusting 5 11.1
2014-Oct-24 08:13 046 0 gusting 3 11.7
2014-Oct-24 08:03 061 1 gusting 4 11.1
2014-Oct-24 08:01 065 2 gusting 6 10.6
2014-Oct-24 07:53 050 0 gusting 4 10.6
2014-Oct-24 07:45 048 0 gusting 7 10.6
2014-Oct-24 07:33 070 2 gusting 6 10.6
2014-Oct-24 07:30 067 10.0
2014-Oct-24 07:23 076 0 10.6
2014-Oct-24 07:15 082 0 gusting 6 10.0
2014-Oct-24 07:03 067 10.0
2014-Oct-24 07:00 067 10.0
2014-Oct-24 06:53 055 3 gusting 4 10.0
2014-Oct-24 06:45 350 0 gusting 6 9.4
2014-Oct-24 06:33 9.4
2014-Oct-24 06:30 022 1 gusting 8 9.4
2014-Oct-24 06:23 032 4 gusting 6 8.9
2014-Oct-24 06:15 036 1 gusting 7 8.3
2014-Oct-24 06:03 294 2 gusting 3 8.9
2014-Oct-24 05:59 292 1 gusting 4 8.3
2014-Oct-24 05:53 290 1 gusting 3 8.3
2014-Oct-24 05:46 298 2 gusting 7 8.3
2014-Oct-24 05:43 294 3 gusting 6 8.3
2014-Oct-24 05:33 332 4 gusting 6 8.3
2014-Oct-24 05:28 321 2 gusting 5 7.8
2014-Oct-24 05:23 320 2 gusting 4 8.3
2014-Oct-24 05:14 327 3 gusting 7 7.8
2014-Oct-24 05:03 300 2 gusting 3 7.8
2014-Oct-24 04:58 299 3 gusting 5 7.8
2014-Oct-24 04:53 284 3 gusting 5 7.8
2014-Oct-24 04:43 303 4 gusting 6 7.8
2014-Oct-24 04:33 286 2 gusting 2 7.8
2014-Oct-24 04:28 306 1 gusting 4 7.2
2014-Oct-24 04:23 304 2 gusting 3 7.8
2014-Oct-24 04:13 307 2 gusting 4 7.2
2014-Oct-24 04:03 337 1 gusting 2 7.2
2014-Oct-24 03:53 339 2 gusting 2 7.2
2014-Oct-24 03:43 317 6 gusting 8 7.2
2014-Oct-24 03:33 322 3 gusting 6 7.2
2014-Oct-24 03:27 306 2 gusting 7 7.2
2014-Oct-24 03:23 321 3 gusting 4 7.2
2014-Oct-24 03:13 330 3 gusting 6 7.2
2014-Oct-24 03:03 308 4 gusting 6 7.2
2014-Oct-24 02:57 303 2 gusting 6 6.7
2014-Oct-24 02:53 304 3 gusting 4 7.2
2014-Oct-24 02:43 319 3 gusting 4 7.2
2014-Oct-24 02:33 328 5 gusting 6 6.7
2014-Oct-24 02:27 343 3 gusting 7 6.7
2014-Oct-24 02:23 320 4 gusting 5 6.7
2014-Oct-24 02:13 299 2 gusting 6 7.2
2014-Oct-24 02:03 302 0 gusting 1 7.2
2014-Oct-24 01:56 313 1 gusting 4 6.7
2014-Oct-24 01:53 321 1 gusting 1 7.2
2014-Oct-24 01:43 322 1 gusting 3 7.2
2014-Oct-24 01:33 322 1 gusting 1 7.2
2014-Oct-24 01:26 322 6.7
2014-Oct-24 01:23 322 7.2
2014-Oct-24 01:13 322 7.2
2014-Oct-24 01:03 322 7.2
2014-Oct-24 00:56 323 7.2
2014-Oct-24 00:53 323 7.2
2014-Oct-24 00:43 323 7.8
2014-Oct-24 00:40 323 7.2
2014-Oct-24 00:33 323 1 gusting 2 7.8
2014-Oct-24 00:26 323 0 gusting 2 7.2
2014-Oct-24 00:23 324 7.8
2014-Oct-24 00:13 324 7.8
2014-Oct-24 00:11 324 7.8
2014-Oct-24 00:03 324 7.8
2014-Oct-23 23:55 323 7.8
2014-Oct-23 23:43 324 8.3
2014-Oct-23 23:40 324 0 gusting 2 7.8
2014-Oct-23 23:33 324 1 gusting 2 8.3
2014-Oct-23 23:24 321 1 gusting 3 7.8
2014-Oct-23 23:13 323 1 gusting 3 8.3
2014-Oct-23 23:10 324 1 gusting 5 8.3
2014-Oct-23 23:03 311 3 gusting 5 8.3
2014-Oct-23 22:55 308 1 gusting 4 8.3
2014-Oct-23 22:43 321 2 gusting 2 8.9
2014-Oct-23 22:39 326 0 gusting 3 8.9
2014-Oct-23 22:33 327 8.9
2014-Oct-23 22:24 327 8.9
2014-Oct-23 22:13 327 1 gusting 3 9.4
2014-Oct-23 22:09 326 0 gusting 4 8.9
2014-Oct-23 22:03 319 2 gusting 2 9.4
2014-Oct-23 21:53 328 2 gusting 4 9.4
2014-Oct-23 21:43 330 0 gusting 2 9.4
2014-Oct-23 21:33 330 9.4
2014-Oct-23 21:23 327 2 gusting 4 9.4
2014-Oct-23 21:13 327 3 gusting 4 10.0
2014-Oct-23 21:08 355 0 gusting 6 9.4
2014-Oct-23 21:03 323 10.0
2014-Oct-23 20:54 323 10.0
2014-Oct-23 20:43 323 10.0
2014-Oct-23 20:38 323 2 gusting 7 10.0
2014-Oct-23 20:33 340 2 gusting 5 10.0
2014-Oct-23 20:23 332 2 gusting 4 10.0
2014-Oct-23 20:13 327 2 gusting 3 10.0
2014-Oct-23 20:08 335 2 gusting 6 10.0
2014-Oct-23 20:03 297 1 gusting 4 10.0
2014-Oct-23 19:53 316 4 gusting 7 10.0
2014-Oct-23 19:43 332 2 gusting 6 10.0
2014-Oct-23 19:38 315 1 gusting 9 10.0
2014-Oct-23 19:33 335 4 gusting 5 10.0
2014-Oct-23 19:23 324 4 gusting 7 10.0
2014-Oct-23 19:13 295 3 gusting 4 10.0
2014-Oct-23 19:06 300 2 gusting 9 10.0
2014-Oct-23 19:03 316 4 gusting 5 10.0
2014-Oct-23 18:53 318 4 gusting 6 10.0
2014-Oct-23 18:23 318 6 gusting 9 10.0
2014-Oct-23 18:13 335 2 gusting 6 10.0
2014-Oct-23 18:06 349 4 gusting 9 10.0
2014-Oct-23 18:03 325 4 gusting 7 10.0
2014-Oct-23 17:53 318 3 gusting 8 10.0
2014-Oct-23 17:50 327 2 gusting 8 10.0
2014-Oct-23 17:43 325 3 gusting 8 10.6
2014-Oct-23 17:35 338 3 gusting 6 10.0
2014-Oct-23 17:23 323 3 gusting 6 10.6
2014-Oct-23 17:13 310 3 gusting 6 10.6
2014-Oct-23 17:05 295 3 gusting 7 10.6
2014-Oct-23 16:53 301 0 gusting 0 11.1
2014-Oct-23 16:50 300 1 gusting 6 10.6
2014-Oct-23 16:43 352 4 gusting 5 10.6
2014-Oct-23 16:33 329 2 gusting 1 10.6
2014-Oct-23 16:23 348 3 gusting 7 11.1
2014-Oct-23 16:19 350 3 gusting 9 10.6
2014-Oct-23 16:13 313 5 gusting 9 11.1
2014-Oct-23 16:03 322 2 gusting 3 11.1
2014-Oct-23 15:53 320 7 gusting 11 11.1
2014-Oct-23 15:43 328 6 gusting 9 10.6
2014-Oct-23 15:34 350 4 gusting 10 10.6
2014-Oct-23 15:23 335 6 gusting 10 10.6
2014-Oct-23 15:20 315 6 gusting 13 10.6
2014-Oct-23 15:13 318 7 gusting 11 10.6
2014-Oct-23 15:04 348 6 gusting 11 10.6
2014-Oct-23 14:53 344 6 gusting 9 11.1
2014-Oct-23 14:48 360 6 gusting 15 11.1
2014-Oct-23 14:43 336 5 gusting 9 11.7
2014-Oct-23 14:33 320 5 gusting 6 11.7
2014-Oct-23 14:23 338 7 gusting 13 11.7
2014-Oct-23 14:18 294 6 gusting 13 11.7
2014-Oct-23 14:13 315 8 gusting 13 12.2
2014-Oct-23 14:03 334 10 gusting 12 12.2
2014-Oct-23 13:53 323 6 gusting 14 12.2
2014-Oct-23 13:47 360 7 gusting 19 12.2
2014-Oct-23 13:43 332 10 gusting 14 12.8
2014-Oct-23 13:33 336 7 gusting 12 12.8
2014-Oct-23 13:23 336 10 gusting 13 12.8
2014-Oct-23 13:13 319 10 gusting 16 13.3
2014-Oct-23 13:03 322 13 gusting 17 13.3
2014-Oct-23 12:53 314 13 gusting 20 13.3
2014-Oct-23 12:43 318 9 gusting 13 12.8
2014-Oct-23 12:33 338 11 gusting 15 13.3
2014-Oct-23 12:23 333 8 gusting 15 12.8
2014-Oct-23 12:17 291 9 gusting 21 12.8
2014-Oct-23 12:13 344 10 gusting 18 12.8
2014-Oct-23 12:03 322 10 gusting 15 12.8
2014-Oct-23 11:53 329 10 gusting 19 12.2
2014-Oct-23 11:46 072 11 gusting 22 12.2
2014-Oct-23 11:43 317 11 gusting 22 12.8
2014-Oct-23 11:33 332 11 gusting 21 12.2
2014-Oct-23 11:23 324 12 gusting 20 11.7
2014-Oct-23 11:16 010 12 gusting 21 11.1
2014-Oct-23 11:13 315 14 gusting 19 11.1
2014-Oct-23 11:03 331 12 gusting 19 11.1
2014-Oct-23 10:53 349 10 gusting 12 10.6
2014-Oct-23 10:46 323 11 gusting 22 10.0
2014-Oct-23 10:43 328 12 gusting 21 10.6
2014-Oct-23 10:33 336 11 gusting 18 10.6
2014-Oct-23 10:23 333 13 gusting 20 10.0
2014-Oct-23 10:15 355 9 gusting 22 10.0
2014-Oct-23 10:03 334 9 gusting 16 10.0
2014-Oct-23 10:00 325 9 gusting 20 10.0
2014-Oct-23 09:53 324 12 gusting 19 10.0
2014-Oct-23 09:45 355 10 gusting 19 10.0
2014-Oct-23 09:33 328 10 gusting 19 10.0
2014-Oct-23 09:23 335 13 gusting 23 9.4
2014-Oct-23 09:15 307 12 gusting 24 9.4
2014-Oct-23 09:03 318 9 gusting 13 9.4
2014-Oct-23 08:53 332 6 gusting 12 9.4
2014-Oct-23 08:44 306 8 gusting 18 8.9
2014-Oct-23 08:33 334 10 gusting 14 9.4
2014-Oct-23 08:29 334 11 gusting 19 8.9
2014-Oct-23 08:23 313 11 gusting 17 9.4
2014-Oct-23 08:13 295 8 gusting 13 10.0
2014-Oct-23 08:03 326 9 gusting 14 9.4
2014-Oct-23 07:59 319 10 gusting 18 9.4
2014-Oct-23 07:53 334 6 gusting 7 9.4
2014-Oct-23 07:44 323 9 gusting 16 9.4
2014-Oct-23 07:33 317 6 gusting 11 9.4
2014-Oct-23 07:29 296 7 gusting 14 8.9
2014-Oct-23 07:23 329 8 gusting 13 8.9
2014-Oct-23 07:13 341 10 gusting 15 8.9
2014-Oct-23 07:03 350 12 gusting 19 8.9
2014-Oct-23 06:58 360 11 gusting 19 8.3
2014-Oct-23 06:53 336 9 gusting 19 8.9
2014-Oct-23 06:43 332 11 gusting 19 8.9
2014-Oct-23 06:33 315 13 gusting 20 8.3
2014-Oct-23 06:29 024 12 gusting 26 8.3
2014-Oct-23 06:23 314 15 gusting 18 8.9
2014-Oct-23 06:13 309 13 gusting 19 10.0
2014-Oct-23 06:03 323 13 gusting 21 11.1
2014-Oct-23 05:57 322 12 gusting 22 11.1
2014-Oct-23 05:53 322 12 gusting 16 11.1
2014-Oct-23 05:43 329 9 gusting 18 11.7
2014-Oct-23 05:33 298 9 gusting 13 11.7
2014-Oct-23 05:27 322 10 gusting 16 11.1
2014-Oct-23 05:23 317 10 gusting 15 11.1
2014-Oct-23 05:13 323 11 gusting 18 11.7
2014-Oct-23 05:03 319 12 gusting 14 13.9
2014-Oct-23 04:57 300 13 gusting 20 15.0
2014-Oct-23 04:53 313 7 gusting 10 17.8
2014-Oct-23 04:43 128 18.9
2014-Oct-23 04:33 128 18.3
2014-Oct-23 04:26 132 18.3
2014-Oct-23 04:23 131 18.3
2014-Oct-23 04:13 126 1 gusting 3 18.3
2014-Oct-23 04:03 110 1 gusting 3 18.3
2014-Oct-23 03:56 128 2 gusting 7 18.3
2014-Oct-23 03:53 111 2 gusting 5 18.3
2014-Oct-23 03:43 099 4 gusting 6 18.3
2014-Oct-23 03:33 115 5 gusting 7 18.3
2014-Oct-23 03:23 144 1 gusting 3 18.3
2014-Oct-23 03:13 106 1 gusting 3 18.3
2014-Oct-23 03:10 103 3 gusting 7 18.3
2014-Oct-23 03:03 112 4 gusting 7 18.3
2014-Oct-23 02:55 107 1 gusting 7 18.3
2014-Oct-23 02:43 113 2 gusting 3 18.3
2014-Oct-23 02:40 111 3 gusting 7 18.3
2014-Oct-23 02:33 103 4 gusting 6 18.3
2014-Oct-23 02:23 108 3 gusting 5 18.3
2014-Oct-23 02:13 126 1 gusting 2 18.3
2014-Oct-23 02:10 128 1 gusting 3 18.3
2014-Oct-23 02:03 130 18.3
2014-Oct-23 01:54 129 18.3
2014-Oct-23 01:43 127 4 gusting 9 18.9
2014-Oct-23 01:39 155 2 gusting 7 18.9
2014-Oct-23 01:33 121 2 gusting 2 18.9
2014-Oct-23 01:24 150 1 gusting 10 18.9
2014-Oct-23 01:13 119 5 gusting 8 19.4
2014-Oct-23 01:09 123 3 gusting 13 19.4
2014-Oct-23 01:03 113 6 gusting 12 20.0
2014-Oct-23 00:54 151 7 gusting 14 20.6
2014-Oct-23 00:43 121 7 gusting 13 21.1
2014-Oct-23 00:39 139 6 gusting 12 20.6
2014-Oct-23 00:33 119 6 gusting 9 21.1
2014-Oct-23 00:23 127 5 gusting 11 21.1
2014-Oct-23 00:13 114 4 gusting 5 21.1
2014-Oct-23 00:08 125 5 gusting 17 20.6
2014-Oct-23 00:03 117 7 gusting 12 20.6
2014-Oct-22 23:53 112 6 gusting 9 20.6
2014-Oct-22 23:43 091 4 gusting 8 20.6
2014-Oct-22 23:38 090 4 gusting 10 20.6
2014-Oct-22 23:33 102 6 gusting 9 20.6
2014-Oct-22 23:23 116 7 gusting 13 20.0
2014-Oct-22 23:13 103 2 gusting 5 19.4
2014-Oct-22 23:07 071 1 gusting 6 19.4
2014-Oct-22 23:03 076 3 gusting 4 20.0
2014-Oct-22 22:53 091 4 gusting 6 20.0
2014-Oct-22 22:43 095 3 gusting 4 20.6
2014-Oct-22 22:37 099 1 gusting 7 20.6
2014-Oct-22 22:33 113 3 gusting 5 20.6
2014-Oct-22 22:23 108 4 gusting 6 20.6
2014-Oct-22 22:13 106 4 gusting 6 20.6
2014-Oct-22 22:07 121 3 gusting 9 20.6
2014-Oct-22 22:03 116 4 gusting 9 20.6
2014-Oct-22 21:53 102 2 gusting 5 20.6
2014-Oct-22 21:43 106 0 gusting 3 20.6
2014-Oct-22 21:36 105 1 gusting 8 20.0
2014-Oct-22 21:33 114 5 gusting 6 20.6
2014-Oct-22 21:23 110 1 gusting 5 20.0
2014-Oct-22 21:13 098 2 gusting 6 20.0
2014-Oct-22 21:03 067 4 gusting 6 20.0
2014-Oct-22 20:53 074 4 gusting 6 20.6
2014-Oct-22 20:43 107 3 gusting 5 20.6
2014-Oct-22 20:36 098 3 gusting 8 20.6
2014-Oct-22 20:33 107 4 gusting 6 20.6
2014-Oct-22 20:23 118 5 gusting 8 20.6
2014-Oct-22 20:13 118 4 gusting 5 20.6
2014-Oct-22 20:05 072 4 gusting 8 20.0
2014-Oct-22 19:53 111 4 gusting 7 19.4
2014-Oct-22 19:43 120 1 gusting 3 18.9
2014-Oct-22 19:33 085 1 gusting 1 18.9
2014-Oct-22 19:23 085 18.9
2014-Oct-22 19:20 086 18.3
2014-Oct-22 19:13 082 0 gusting 1 18.9
2014-Oct-22 19:05 105 18.3
2014-Oct-22 18:53 121 18.9
2014-Oct-22 18:50 121 18.3
2014-Oct-22 18:43 121 18.9
2014-Oct-22 18:35 121 18.9
2014-Oct-22 18:23 121 1 gusting 2 18.9
2014-Oct-22 18:20 123 18.9
2014-Oct-22 18:13 061 2 gusting 2 18.9
2014-Oct-22 18:03 126 0 gusting 1 18.9
2014-Oct-22 17:53 126 0 gusting 1 19.4
2014-Oct-22 17:49 125 1 gusting 5 18.9
2014-Oct-22 17:43 124 1 gusting 3 19.4
2014-Oct-22 17:34 130 1 gusting 6 18.9
2014-Oct-22 17:23 127 0 gusting 1 19.4
2014-Oct-22 17:19 128 0 gusting 3 19.4
2014-Oct-22 17:13 128 0 gusting 3 19.4
2014-Oct-22 17:03 126 1 gusting 3 19.4
2014-Oct-22 16:53 146 1 gusting 2 19.4
2014-Oct-22 16:49 148 0 gusting 6 19.4
2014-Oct-22 16:43 155 1 gusting 3 19.4
2014-Oct-22 16:34 169 0 gusting 6 19.4
2014-Oct-22 16:23 158 2 gusting 5 19.4
2014-Oct-22 16:19 182 0 gusting 5 19.4
2014-Oct-22 16:13 185 2 gusting 3 19.4
2014-Oct-22 16:04 163 0 gusting 6 19.4
2014-Oct-22 15:53 165 2 gusting 6 20.0
2014-Oct-22 15:48 175 1 gusting 6 20.0
2014-Oct-22 15:43 170 1 gusting 5 20.0
2014-Oct-22 15:33 169 2 gusting 4 20.6
2014-Oct-22 15:23 156 4 gusting 6 20.6
2014-Oct-22 15:17 163 2 gusting 6 20.0
2014-Oct-22 15:13 142 3 gusting 6 20.6
2014-Oct-22 15:03 144 2 gusting 7 20.6
2014-Oct-22 14:53 181 0 gusting 3 21.1
2014-Oct-22 14:47 169 20.6
2014-Oct-22 14:43 182 0 gusting 3 21.1
2014-Oct-22 14:33 183 2 gusting 5 21.1
2014-Oct-22 14:23 169 3 gusting 6 21.1
2014-Oct-22 14:17 180 4 gusting 9 21.1
2014-Oct-22 14:13 197 4 gusting 5 21.7
2014-Oct-22 14:03 181 3 gusting 6 21.7